SCOUT X-4 R/B, 933

Orbit data source: Space-Track

SCOUT X-4 R/B, 933 is space debris in LEO originally from a launch on Sat, 21 Nov 1964 UTC launched from the Air Force Western Test Range (AFWTR). Debris objects in space refer to the collection of defunct objects orbiting the Earth. Examples of debris include non-operational satellites, rocket bodies, and fragments generated from explosions, collisions, or faulty payload assembly.

Loading next visibility...
Identifier
933, 1964-076C
Orbit
LEO
Last TLE update
12 hours ago
Origin
Manufacturer
ABL
Mission
Spacecraft
Bus & Motor
ALTAIR, Unknown motor
Mass
33 kg wet, 33 kg dry
Launch date (UTC)
1964-11-21 (61 years ago)
Launch vehicle
Unknown
Launch site
Air Force Western Test Range (AFWTR)
Object type
Payload
Rocket body
Debris
Shape & HBR
Cyl, 1.5 m
Radar Cross Section
0.687 m², Medium (>0.1 m² and < 1m²)

Expand to show TLE details & history

TLE from 12 hours ago
0 SCOUT X-4 R/B
1 00933U 64076C   25181.89024683  .00001007  00000-0  32876-3 0  9992
2 00933  81.3363  67.2784 1053914  91.5447 280.6422 12.81643680791569
Epoch: 2025-06-30T21:21Z
TLE epoch observation values (Epoch: 2025-06-30T21:21:57.326Z)
Latitude
Longitude
-172.40402°
Altitude
1,272.099 km
Speed
7.25 km/s
True Right ascension
04h 29m 06s
True Declination
0° 00' 00"
Sunlit
Object was in daylight at epoch
Visualization orbit readout
Latitude
55.46439°
Longitude
-5.51121°
Altitude
640.446 km
Speed
7.88 km/s
Apparent Right ascension
11h 43m 05s
Apparent Declination
16° 42' 53"
Sunlit
Object is in daylight
Visualization observer readout
Local Sidereal Time
20:47:32
Azimuth
314.981° NW
Elevation
-20.174°
Doppler factor
1
Orbital elements
Apogee altitude
2,144.768 km
Perigee altitude
519.568 km
Semi-major axis
7,710.305 km
Eccentricity
0.10539
Inclination
81.3363°
RAAN
67.2784°
Arg. of periapsis
91.5447°
True anomaly
Unknown
Mean anomaly
280.6422°
Eccentric anomaly
Unknown
Mean motion
3.2058 °/min
Orbital period
112.3 mins
BSTAR
0.00032876
Loading maneuver chart data...
Loading SW <> Apogee altitude chart data...
Loading historical data...
Loading historical data...
Loading historical data...
Loading historical data...
Loading historical data...
Loading historical data...
Loading historical data...

SCOUT X-4 R/B Visibility forecast

Observer location: undefined°, undefined°

Span
Click to sort rows by Start time (UTC) header in descending order
Start Az.
Max El. time (UTC)
Max El. Az.
Max El.
End time (UTC)
End Az.
7 mins2025-07-01 16:13:18.136Z142.214° SSE2025-07-01 16:17:18.136Z91.296° ESE22.438°2025-07-01 16:20:18.136Z45.013° ENE
6 mins2025-07-01 18:07:18.136Z236.101° WSW2025-07-01 18:10:18.136Z279.986° WNW24.219°2025-07-01 18:13:18.136Z332.663° NNW
9 mins2025-07-02 03:54:18.136Z3.744° NNE2025-07-02 03:57:18.136Z73.905° E41.435°2025-07-02 04:03:18.136Z161.472° S
|